Wetbulb
61.60 60.73 60.02 58.83 57.87 56.51 56.51 56.03 55.86 56.01 56.17 56.02 55.60 55.57 55.85 56.17 56.02 56.56 56.77 56.70 56.42 56.39 56.32 56.64 57.29 58.01 58.83 53.97 51.23 65.48 66.33 66.80 65.38 65.49 61.93 60.77 59.98 59.72 59.12 61.80 64.40 62.57 64.44 65.02 64.94 63.77 63.83
60.23 59.59 58.33 57.24 56.27 56.40 56.10 55.86 56.04 55.81 55.42 55.36 55.32 55.17 55.77 55.84 56.00 56.19 56.16 55.54 55.14 55.20 55.98 56.58 57.03 58.02 56.16 49.08 62.55 64.33 63.10 65.08 63.62 62.27 59.85 60.66 59.04 60.37 58.76 60.25 61.42 63.98 64.03 63.56 63.14 61.86 62.94
58.11 57.17 56.46 56.85 56.49 56.12 55.87 55.60 55.33 55.35 55.37 55.34 55.49 55.29 55.21 55.39 55.74 55.53 55.37 54.63 54.32 54.76 55.67 56.62 57.48 58.74 54.25 51.52 64.36 63.43 66.10 63.85 62.59 60.92 58.65 61.00 61.83 59.97 60.33 58.68 62.56 62.59 60.18 62.16 62.63 62.93 63.69
56.39 56.83 56.43 56.20 55.96 55.37 55.18 55.24 55.30 55.27 55.24 55.33 55.33 55.50 55.38 55.26 55.31 55.15 54.43 53.75 54.57 57.18 56.57 56.96 58.85 59.36 53.17 60.00 65.21 63.02 64.73 63.24 60.80 61.36 60.01 61.66 63.59 60.65 59.35 62.10 60.26 59.06 59.84 57.50 62.24 63.22 64.77
56.65 56.18 55.90 55.88 55.56 55.23 55.31 55.35 55.29 55.27 55.39 55.13 54.97 55.25 55.35 55.01 54.80 54.80 53.55 53.61 57.95 58.49 57.88 59.19 59.90 58.26 52.86 62.59 61.39 61.33 61.70 59.96 59.50 59.40 59.90 59.95 61.88 58.94 59.08 56.25 54.97 56.96 54.81 56.69 59.09 64.22 64.51
56.61 55.93 55.82 55.71 55.35 55.36 55.19 55.33 55.28 55.26 55.41 54.96 55.41 56.00 55.57 54.71 54.32 53.85 52.93 53.12 57.33 60.31 60.94 60.93 59.94 54.19 56.47 54.96 61.22 61.10 61.60 60.13 57.15 56.83 55.29 55.51 57.30 55.01 55.93 53.89 49.23 52.37 54.61 57.17 56.06 62.60 64.00
56.01 55.80 55.70 55.37 55.11 55.35 55.55 55.41 55.57 55.67 55.96 56.02 55.97 55.73 55.16 54.98 53.49 52.73 53.64 58.04 55.04 55.32 55.82 52.51 51.73 51.80 55.15 58.30 62.27 59.47 61.12 58.91 57.63 55.61 51.34 53.24 51.68 49.46 52.75 55.29 56.35 55.82 56.21 55.70 56.09 62.40 60.37
55.75 55.42 55.46 55.13 55.56 55.35 55.27 55.00 55.38 55.54 55.39 55.67 55.81 55.52 55.06 54.32 53.22 52.57 55.73 53.86 52.85 53.26 49.65 54.33 54.28 53.40 55.38 57.01 53.72 57.30 61.06 56.55 54.23 49.74 52.46 50.36 48.62 53.21 55.74 56.60 56.21 55.46 55.07 55.08 55.24 56.66 57.72
55.83 55.19 55.06 55.57 55.69 55.59 55.37 54.96 55.22 55.33 55.56 55.73 55.66 55.24 54.14 53.26 52.50 53.59 54.77 53.43 55.93 55.32 50.01 50.01 52.59 52.73 53.66 54.98 52.93 55.84 58.42 55.98 53.70 50.14 50.28 48.87 50.45 54.18 55.15 55.79 54.94 55.00 54.19 55.24 54.43 55.42 56.60
55.79 54.98 55.13 55.55 55.75 55.65 55.46 55.43 55.68 55.60 55.62 55.42 55.24 54.55 53.20 52.22 50.91 57.01 54.21 55.70 56.98 55.51 46.75 45.95 48.82 51.42 53.26 54.91 50.04 58.25 59.11 55.65 53.42 51.78 50.77 49.80 52.62 51.32 53.29 54.33 55.54 52.43 56.17 55.02 54.37 53.17 50.92
56.12 55.48 55.01 55.64 55.55 55.68 55.59 55.56 55.64 55.50 55.30 55.36 54.79 53.52 51.98 49.70 56.49 55.30 54.65 57.82 56.71 54.06 37.92 46.78 48.44 54.37 54.49 51.68 51.05 53.68 59.05 55.60 52.20 52.52 52.99 49.89 50.01 50.48 51.94 54.27 56.59 54.01 56.79 55.43 54.81 54.01 52.97
56.50 55.40 55.43 55.57 55.41 55.63 55.50 55.34 55.42 55.10 55.06 54.87 53.71 52.25 51.19 54.28 56.99 55.72 57.04 56.81 53.47 45.07 36.53 44.38 47.84 48.71 49.02 49.29 49.94 52.66 53.44 54.39 55.15 52.80 53.95 52.50 54.53 53.77 55.01 57.54 57.51 57.67 54.76 53.95 53.91 53.67 47.70
56.16 55.57 54.88 55.26 55.35 55.32 55.26 55.34 55.48 54.79 54.67 53.98 52.27 51.18 51.55 56.24 55.28 58.87 59.09 53.99 44.92 41.40 46.77 43.22 44.38 48.44 48.00 46.61 47.93 49.97 49.20 49.00 49.12 47.08 47.76 50.01 51.82 55.16 57.06 55.10 57.34 56.04 52.56 46.26 44.93 45.47 45.96
56.29 55.84 54.87 54.85 55.06 55.24 55.46 55.56 55.48 54.71 54.14 52.78 50.91 50.19 55.12 57.73 59.03 58.88 56.26 49.73 40.54 42.93 44.15 47.47 46.29 46.80 44.84 46.95 47.00 48.56 48.60 47.16 48.30 48.50 49.32 45.57 43.91 51.44 54.30 55.01 53.13 53.49 52.83 47.51 41.94 43.38 46.36
56.36 55.55 54.93 55.10 55.06 55.26 55.60 55.48 55.22 54.63 53.74 52.17 50.04 59.34 58.78 57.78 58.52 57.86 53.14 44.82 42.55 43.64 45.99 45.14 46.10 43.62 44.40 45.69 46.73 47.38 47.25 45.87 46.96 48.29 46.43 46.93 44.54 48.57 49.18 50.73 51.78 52.57 50.32 53.98 48.32 49.27 47.67
55.90 55.23 55.19 54.92 55.12 55.32 55.68 55.48 55.08 54.47 53.36 51.84 60.60 59.09 56.37 58.06 58.29 56.77 51.40 41.90 45.14 47.07 46.92 47.36 43.17 44.35 42.38 44.18 44.71 45.82 45.51 47.36 46.27 48.11 49.38 48.02 43.60 47.52 47.45 49.82 50.54 51.24 54.03 47.74 48.63 43.31 42.55
55.54 54.97 55.16 55.13 55.22 55.52 55.73 55.62 54.95 54.00 52.54 51.37 58.74 54.93 56.93 57.85 57.32 54.75 46.75 45.09 46.26 48.77 47.96 45.90 44.37 43.99 43.24 44.16 45.01 44.50 43.74 46.32 47.24 47.18 48.79 48.03 47.59 45.30 48.23 47.22 47.97 48.51 48.40 49.72 50.71 49.11 45.13
55.27 55.00 55.26 55.14 55.20 55.70 55.89 55.66 54.53 53.04 51.25 51.68 56.90 52.34 57.58 58.32 52.13 51.40 46.47 46.25 44.33 47.62 48.96 46.37 46.21 45.97 44.61 44.71 44.35 43.41 42.78 44.63 48.28 49.30 44.44 47.14 46.96 43.81 45.34 46.70 48.06 48.76 48.69 50.12 46.38 46.50 48.91
55.33 55.12 55.24 55.02 55.24 55.83 55.99 55.26 54.00 52.69 51.59 58.46 54.67 52.93 57.72 56.97 47.98 46.32 46.98 45.77 47.10 46.99 46.90 46.40 45.19 46.25 46.05 44.54 42.13 44.72 44.73 45.94 48.30 48.99 47.19 46.04 44.57 41.39 42.16 45.49 47.18 46.84 47.66 48.47 49.09 49.98 48.20
54.78 54.52 54.84 55.20 55.49 56.03 55.91 55.24 53.92 52.81 51.82 56.95 54.48 49.00 51.84 53.03 52.31 48.31 45.60 44.45 43.57 47.18 46.40 47.06 46.04 47.52 46.43 44.92 46.96 43.95 43.90 45.82 47.32 48.91 47.86 48.90 44.56 41.43 40.80 43.41 47.04 44.44 44.78 46.76 48.13 46.42 47.96
54.40 54.34 54.55 55.05 55.43 56.09 56.15 55.38 54.16 53.07 51.79 56.51 53.00 47.65 49.03 46.15 46.79 46.89 47.08 44.93 42.82 42.40 46.37 47.21 44.70 44.63 44.54 43.44 44.45 43.72 45.28 46.27 47.60 47.88 49.00 49.49 44.33 44.63 43.45 43.89 44.78 44.44 43.81 44.28 45.97 47.32 46.45
54.05 53.95 54.43 54.74 55.41 56.07 56.21 55.60 54.75 53.28 51.53 57.27 52.26 51.45 50.90 48.30 47.56 46.94 44.52 44.52 43.57 44.34 45.18 43.52 43.58 44.70 45.59 43.57 44.11 42.94 45.22 46.92 45.05 48.09 47.69 48.07 44.49 45.80 42.38 43.56 44.06 42.62 43.44 43.56 43.84 44.92 46.85
53.84 53.82 54.21 54.37 54.90 55.85 56.25 55.89 55.14 53.28 53.43 55.24 56.36 54.38 52.46 44.32 46.71 47.85 45.56 44.49 43.86 46.20 46.70 46.84 45.53 45.28 43.82 44.34 47.05 47.84 48.25 47.24 47.28 46.14 44.55 45.50 45.73 43.44 41.10 42.44 41.74 39.52 43.85 43.43 44.61 46.04 46.64
53.68 53.43 53.74 54.02 54.58 55.22 56.19 56.05 55.68 54.08 52.87 58.95 56.41 55.43 53.16 45.69 47.38 46.25 45.84 45.95 45.36 46.41 44.99 46.83 47.72 46.44 46.65 50.30 49.77 48.95 47.88 47.29 46.93 46.77 47.42 43.86 43.99 44.56 43.70 41.15 33.71 42.82 46.32 45.79 45.47 45.89 47.90
53.55 53.08 53.35 53.73 54.27 54.98 55.59 56.20 56.01 54.87 53.00 59.26 59.36 55.69 53.78 47.56 47.83 46.55 46.35 46.12 47.21 47.91 46.94 46.84 47.84 48.89 50.98 48.73 45.50 42.22 42.87 43.03 43.46 44.96 46.10 47.40 44.83 41.09 38.49 38.42 40.05 40.83 43.31 43.68 44.29 43.20 46.04
53.51 52.79 52.99 53.53 53.73 54.08 55.15 55.72 56.16 55.36 53.61 59.80 58.26 58.83 55.28 50.89 48.25 48.47 46.96 47.37 47.51 46.61 46.29 47.06 50.47 51.30 50.00 48.19 46.38 38.63 40.46 40.24 39.24 40.89 46.85 44.51 46.86 42.97 39.98 36.19 33.93 43.24 44.24 46.60 46.72 41.07 46.11
53.61 52.56 52.70 53.05 53.17 53.26 54.23 55.48 55.68 55.79 54.41 57.52 58.60 58.86 57.11 53.07 51.85 51.24 50.15 49.15 49.76 47.98 48.06 47.59 48.09 47.79 49.12 47.41 43.18 41.89 40.70 40.43 38.02 37.59 39.03 41.60 42.62 39.45 39.86 38.18 41.84 45.25 45.19 47.58 37.62 41.46 46.72
53.81 52.64 52.70 52.80 52.88 52.49 53.51 54.82 55.22 55.32 55.36 55.85 57.86 59.53 57.00 53.71 53.32 52.74 52.50 50.55 50.52 51.27 48.69 48.49 47.15 46.78 46.03 42.14 43.36 41.81 41.62 40.31 38.06 39.42 39.38 39.54 39.32 39.82 41.10 37.76 34.47 47.65 45.02 41.72 46.29 47.23 46.73
54.00 52.53 52.64 52.66 52.58 51.78 52.80 53.59 54.75 55.08 55.28 53.85 57.99 59.32 58.91 55.59 54.52 56.35 56.11 56.20 55.03 54.38 52.89 50.46 47.72 46.22 48.93 46.00 45.67 44.45 41.76 42.21 40.43 39.43 43.02 38.30 42.98 43.06 41.79 43.48 46.04 49.04 47.17 48.53 47.41 46.86 46.54
MSLP
1021.31 1021.29 1021.09 1020.93 1020.68 1020.43 1020.17 1019.85 1019.52 1019.21 1018.86 1018.47 1018.05 1017.72 1017.33 1016.93 1016.53 1016.25 1015.91 1015.55 1015.25 1015.07 1014.84 1014.63 1014.43 1014.30 1013.95 1011.45 1008.65 1008.99 1009.66 1010.01 1010.25 1009.63 1009.02 1008.66 1008.45 1008.01 1007.49 1007.45 1007.84 1008.10 1007.37 1007.38 1007.34 1007.50 1007.89
1021.64 1021.47 1021.31 1021.03 1020.78 1020.54 1020.24 1019.83 1019.49 1019.11 1018.75 1018.44 1018.02 1017.55 1017.12 1016.66 1016.25 1015.92 1015.58 1015.31 1015.01 1014.74 1014.57 1014.39 1014.19 1014.09 1012.75 1009.80 1008.84 1009.19 1009.07 1009.47 1009.54 1009.33 1008.81 1008.54 1008.15 1007.95 1007.50 1007.59 1007.43 1007.13 1007.27 1006.99 1006.75 1006.81 1007.53
1022.01 1021.75 1021.45 1021.06 1020.75 1020.39 1020.08 1019.83 1019.38 1019.01 1018.64 1018.19 1017.76 1017.38 1016.93 1016.41 1016.01 1015.63 1015.28 1014.94 1014.61 1014.26 1014.11 1014.09 1013.95 1013.31 1011.49 1009.18 1009.02 1009.07 1009.09 1008.97 1009.24 1009.00 1008.72 1008.63 1008.51 1008.31 1007.49 1007.48 1007.55 1007.36 1006.83 1006.38 1006.48 1006.61 1007.15
1022.18 1021.81 1021.41 1021.03 1020.69 1020.37 1020.02 1019.59 1019.14 1018.62 1018.27 1017.94 1017.52 1017.05 1016.59 1016.08 1015.67 1015.33 1015.01 1014.60 1013.93 1013.27 1013.51 1013.73 1013.72 1012.48 1009.45 1009.29 1009.13 1009.23 1009.11 1009.25 1009.59 1009.12 1008.97 1009.36 1008.87 1008.12 1007.66 1007.52 1007.51 1006.86 1006.27 1005.27 1005.97 1006.42 1007.05
1022.06 1021.71 1021.33 1020.97 1020.63 1020.29 1019.90 1019.44 1018.87 1018.31 1017.83 1017.48 1017.17 1016.80 1016.30 1015.80 1015.37 1014.91 1014.78 1014.37 1013.40 1012.77 1013.15 1013.57 1012.88 1011.42 1008.79 1009.89 1009.08 1009.03 1009.01 1009.00 1009.23 1009.45 1009.55 1009.79 1009.10 1008.01 1007.92 1006.91 1006.22 1005.84 1004.64 1004.48 1005.64 1006.08 1006.48
1021.99 1021.56 1021.22 1020.80 1020.45 1020.07 1019.64 1019.13 1018.67 1018.09 1017.55 1017.07 1016.60 1016.36 1016.02 1015.37 1015.06 1014.75 1014.35 1014.33 1013.56 1013.09 1012.85 1012.49 1011.94 1010.75 1008.95 1008.13 1008.34 1008.96 1009.05 1008.96 1009.11 1009.32 1009.46 1009.50 1008.62 1007.79 1006.89 1005.79 1004.30 1004.27 1004.19 1004.15 1004.63 1005.96 1005.85
1021.87 1021.47 1021.04 1020.60 1020.25 1019.81 1019.41 1018.94 1018.35 1017.83 1017.22 1016.77 1016.33 1015.91 1015.47 1015.01 1014.76 1014.53 1013.85 1013.23 1012.90 1011.92 1011.25 1009.02 1008.69 1008.15 1007.54 1007.85 1008.46 1008.75 1009.00 1009.01 1009.11 1009.15 1008.29 1008.65 1007.75 1006.55 1005.79 1005.42 1004.56 1003.88 1004.27 1004.34 1005.12 1005.55 1005.41
1021.82 1021.43 1020.91 1020.57 1020.04 1019.43 1018.94 1018.35 1017.93 1017.37 1016.81 1016.31 1015.89 1015.42 1015.00 1014.58 1014.42 1014.17 1013.45 1010.91 1010.47 1010.45 1008.92 1008.35 1008.38 1008.19 1008.00 1007.38 1007.39 1008.23 1008.66 1008.32 1008.47 1007.95 1007.78 1008.27 1006.78 1006.06 1006.01 1005.84 1005.77 1005.13 1004.57 1004.45 1005.55 1005.65 1005.54
1021.84 1021.37 1020.99 1020.38 1019.80 1019.25 1018.62 1018.00 1017.50 1016.93 1016.48 1015.91 1015.35 1014.92 1014.61 1014.44 1014.28 1013.75 1011.69 1010.56 1010.44 1010.31 1008.47 1007.72 1007.59 1007.15 1006.95 1007.38 1006.55 1007.44 1007.99 1007.56 1007.70 1007.31 1007.44 1006.56 1005.95 1006.16 1006.63 1006.29 1005.87 1005.25 1004.56 1004.42 1004.69 1005.48 1005.60
1021.74 1021.31 1020.73 1020.19 1019.67 1019.03 1018.49 1017.81 1017.13 1016.55 1016.09 1015.52 1014.94 1014.61 1014.37 1014.08 1014.22 1011.84 1010.75 1010.66 1010.25 1010.23 1007.42 1007.10 1006.68 1006.27 1006.73 1006.20 1006.05 1006.90 1007.57 1007.21 1007.08 1006.95 1007.11 1006.40 1006.21 1006.54 1006.43 1005.96 1005.74 1004.81 1005.22 1005.15 1005.41 1005.16 1004.43
1021.63 1021.17 1020.53 1020.09 1019.50 1018.99 1018.43 1017.66 1016.93 1016.21 1015.62 1015.11 1014.65 1014.38 1014.15 1014.03 1011.97 1010.69 1010.76 1010.26 1010.03 1009.67 1006.41 1006.74 1006.16 1006.45 1005.75 1005.63 1005.69 1006.73 1007.01 1006.87 1006.58 1006.50 1007.04 1005.86 1005.94 1006.21 1005.78 1005.45 1005.73 1004.65 1005.65 1005.60 1005.40 1005.09 1004.83
1021.37 1021.00 1020.45 1019.79 1019.16 1018.68 1018.06 1017.36 1016.57 1015.93 1015.25 1014.78 1014.47 1014.21 1014.09 1012.97 1011.81 1010.69 1010.53 1010.11 1009.87 1007.59 1006.28 1006.27 1006.04 1005.81 1005.69 1005.38 1005.44 1006.43 1006.82 1007.19 1006.49 1006.48 1006.83 1005.69 1005.97 1005.91 1005.35 1005.51 1005.93 1005.67 1005.91 1005.82 1005.69 1004.90 1004.53
1021.32 1020.82 1020.43 1019.81 1019.03 1018.28 1017.61 1017.01 1016.34 1015.70 1015.08 1014.52 1014.15 1013.84 1013.79 1011.85 1010.22 1010.26 1009.93 1008.88 1007.38 1006.36 1007.37 1007.03 1006.18 1005.72 1005.21 1005.36 1005.75 1006.16 1006.58 1006.90 1006.49 1006.40 1006.21 1006.28 1006.04 1005.74 1005.58 1005.61 1005.81 1005.84 1005.07 1004.53 1004.52 1004.07 1003.23
1021.32 1020.80 1020.25 1019.76 1019.05 1018.39 1017.61 1016.75 1016.01 1015.28 1014.69 1014.21 1013.79 1013.55 1012.55 1011.29 1010.59 1010.19 1009.00 1007.67 1007.01 1008.29 1007.93 1007.87 1007.29 1005.98 1006.04 1006.32 1006.80 1006.59 1006.98 1007.27 1007.61 1006.82 1005.68 1005.87 1006.17 1006.00 1005.87 1005.24 1005.04 1005.21 1004.37 1002.66 1002.53 1002.50 1002.90
1021.21 1020.74 1020.18 1019.61 1018.91 1018.17 1017.35 1016.41 1015.68 1015.04 1014.32 1013.82 1013.31 1012.00 1010.24 1010.39 1010.50 1009.94 1008.15 1007.29 1009.09 1009.68 1009.62 1008.73 1007.55 1006.99 1007.13 1007.27 1007.22 1007.60 1007.89 1008.37 1009.00 1008.29 1006.65 1005.81 1006.31 1007.14 1006.93 1006.26 1005.68 1005.03 1004.41 1003.34 1002.77 1002.53 1002.21
1021.19 1020.68 1020.17 1019.39 1018.70 1018.06 1017.19 1016.32 1015.53 1014.66 1014.03 1013.39 1011.93 1010.51 1010.19 1010.08 1010.18 1008.91 1007.92 1009.17 1010.13 1010.99 1010.55 1009.47 1008.42 1008.73 1007.68 1008.03 1007.90 1008.02 1008.80 1010.30 1009.97 1009.97 1009.16 1007.19 1006.97 1007.49 1007.71 1007.25 1006.65 1005.50 1005.13 1004.65 1003.71 1002.43 1002.30
1021.10 1020.64 1019.96 1019.39 1018.81 1018.05 1016.99 1016.21 1015.49 1014.57 1013.77 1013.15 1011.47 1009.45 1010.09 1010.01 1009.74 1008.37 1008.50 1010.25 1010.96 1011.39 1011.29 1010.51 1010.15 1009.93 1009.89 1009.30 1009.18 1009.64 1010.46 1011.43 1011.49 1010.89 1010.13 1008.73 1007.43 1008.11 1007.98 1007.55 1006.51 1006.68 1005.74 1005.19 1003.65 1003.13 1002.53
1021.01 1020.43 1019.86 1019.21 1018.70 1017.99 1017.18 1016.19 1015.45 1014.47 1013.43 1012.98 1010.79 1009.09 1010.12 1010.01 1009.13 1009.60 1010.28 1011.48 1012.44 1011.64 1011.50 1011.50 1011.43 1011.01 1010.88 1010.79 1010.69 1010.89 1011.47 1012.10 1012.39 1011.63 1010.70 1010.22 1008.14 1007.81 1008.12 1009.52 1009.18 1007.83 1006.59 1005.78 1004.59 1004.13 1004.00
1020.98 1020.42 1019.89 1019.40 1018.65 1017.93 1017.19 1016.53 1015.72 1015.07 1014.31 1013.01 1010.96 1010.46 1010.39 1009.35 1009.14 1010.43 1011.74 1012.29 1012.69 1012.28 1012.25 1011.94 1012.00 1012.05 1012.07 1011.69 1011.71 1011.92 1012.23 1013.12 1012.78 1011.94 1011.49 1011.17 1009.89 1009.17 1009.53 1009.73 1009.73 1008.50 1008.35 1007.61 1006.61 1005.52 1004.64
1020.83 1020.43 1019.87 1019.35 1018.83 1018.02 1017.06 1016.17 1015.71 1014.95 1014.36 1013.69 1011.49 1010.37 1010.83 1010.95 1011.58 1011.22 1011.82 1012.58 1012.95 1013.54 1013.30 1013.21 1012.96 1012.65 1012.21 1012.15 1012.11 1012.42 1012.73 1013.16 1013.14 1012.60 1012.61 1011.67 1010.67 1010.29 1009.15 1008.70 1008.58 1009.28 1009.10 1008.60 1007.47 1006.13 1005.71
1020.59 1020.24 1019.86 1019.45 1018.90 1018.21 1017.49 1016.33 1015.61 1015.04 1014.32 1014.08 1012.31 1012.39 1012.89 1011.68 1012.11 1012.39 1012.59 1013.15 1013.29 1013.55 1013.88 1013.81 1013.67 1013.42 1013.03 1012.64 1012.67 1012.89 1012.99 1013.01 1013.01 1013.06 1012.48 1011.47 1010.68 1011.08 1011.12 1010.90 1010.44 1010.23 1010.01 1009.67 1008.77 1008.37 1007.68
1020.68 1020.22 1019.89 1019.46 1019.04 1018.52 1017.83 1016.86 1015.80 1014.89 1014.27 1013.37 1012.61 1012.59 1013.11 1013.09 1013.31 1012.81 1013.62 1013.78 1013.79 1014.21 1014.16 1014.33 1014.24 1014.26 1013.95 1013.94 1013.91 1013.66 1013.53 1013.40 1013.39 1013.17 1012.75 1012.29 1011.74 1011.66 1011.63 1011.84 1011.62 1011.18 1011.29 1011.21 1010.84 1010.51 1010.21
1020.71 1020.50 1019.99 1019.55 1019.14 1018.74 1018.15 1017.52 1016.61 1015.64 1014.13 1013.53 1014.41 1014.15 1013.18 1013.74 1013.19 1012.95 1014.00 1014.39 1014.75 1014.93 1015.40 1015.34 1015.31 1015.05 1015.21 1015.56 1015.29 1015.16 1014.93 1014.81 1014.71 1014.12 1013.53 1013.13 1012.49 1012.27 1011.34 1012.58 1012.43 1012.03 1011.53 1011.87 1011.93 1012.39 1012.00
1020.35 1020.17 1020.09 1019.83 1019.34 1018.77 1018.33 1017.79 1017.25 1016.67 1016.25 1014.86 1015.08 1014.26 1013.05 1013.16 1013.31 1013.83 1014.52 1014.91 1015.19 1015.37 1015.46 1015.76 1015.72 1015.66 1016.76 1016.54 1016.19 1015.63 1015.33 1015.31 1015.24 1015.13 1014.68 1013.88 1013.64 1013.21 1011.95 1013.09 1012.73 1013.26 1013.76 1013.66 1013.18 1014.41 1014.58
1020.15 1019.98 1019.79 1019.82 1019.43 1018.98 1018.41 1017.97 1017.62 1017.35 1016.88 1015.60 1015.78 1014.78 1013.61 1013.39 1013.84 1014.30 1014.51 1014.99 1015.47 1015.84 1015.88 1016.04 1016.55 1017.05 1016.93 1016.33 1015.64 1015.63 1015.59 1015.67 1015.80 1015.79 1015.33 1015.03 1014.39 1013.97 1013.52 1013.06 1013.56 1014.21 1014.65 1014.59 1014.52 1015.69 1016.70
1020.23 1019.87 1019.67 1019.71 1019.62 1019.39 1018.91 1018.32 1017.83 1017.70 1017.37 1016.26 1016.17 1016.05 1014.49 1013.73 1013.80 1014.46 1014.51 1014.87 1014.63 1015.05 1015.69 1016.35 1017.13 1017.29 1017.02 1015.94 1016.08 1015.81 1015.77 1016.17 1016.05 1016.21 1016.17 1015.79 1015.76 1015.17 1014.67 1013.91 1013.27 1013.83 1015.55 1016.06 1015.95 1015.80 1017.70
1020.21 1020.05 1019.77 1019.59 1019.60 1019.54 1019.28 1018.70 1018.19 1017.99 1017.73 1016.96 1016.41 1016.65 1015.19 1013.97 1014.35 1014.66 1014.19 1014.41 1014.96 1015.08 1015.01 1015.94 1016.49 1016.81 1016.97 1016.07 1016.57 1016.95 1017.46 1018.21 1017.48 1016.57 1016.39 1016.09 1015.95 1015.87 1015.12 1014.85 1014.41 1015.64 1016.53 1016.65 1016.47 1017.47 1018.33
1019.92 1019.74 1019.77 1019.53 1019.35 1019.41 1019.21 1018.83 1018.44 1018.24 1018.02 1017.25 1016.60 1016.79 1015.83 1014.39 1014.41 1014.97 1014.90 1014.91 1015.07 1014.80 1014.48 1015.84 1016.15 1016.27 1016.15 1016.26 1016.78 1017.78 1018.11 1018.66 1018.63 1018.28 1017.31 1016.61 1016.53 1016.30 1015.83 1015.56 1015.81 1016.45 1017.27 1016.97 1017.58 1018.40 1018.77
1019.57 1019.47 1019.39 1019.39 1019.25 1019.15 1019.07 1018.93 1018.58 1018.32 1018.12 1017.65 1016.12 1016.79 1016.65 1015.33 1014.74 1015.36 1014.87 1015.03 1014.88 1014.78 1014.73 1015.61 1015.44 1015.73 1015.94 1016.23 1017.09 1017.71 1018.04 1018.26 1018.29 1017.69 1018.09 1017.59 1017.22 1017.12 1016.85 1016.21 1016.77 1017.04 1017.06 1017.97 1018.17 1018.54 1019.19
Wind_Speed
12 10 11 12 12 13 13 13 13 14 14 15 15 15 15 15 15 15 16 15 15 14 12 10 8 6 8 8 2 7 15 16 18 17 19 17 16 12 12 11 8 8 4 2 4 3 2
15 14 15 14 14 14 14 14 15 15 15 16 16 15 15 16 16 15 16 17 17 15 13 10 6 4 9 7 4 11 16 19 17 18 17 14 11 7 8 9 11 4 8 6 4 1 6
16 16 15 15 15 14 15 16 16 16 16 15 16 16 15 15 16 16 17 17 19 17 13 9 7 7 8 5 2 10 14 15 16 14 16 14 7 12 6 7 7 6 9 8 2 5 8
15 15 15 15 16 16 16 16 16 16 16 16 16 16 17 16 16 16 16 18 19 18 9 8 9 7 4 2 6 11 11 13 10 10 10 5 10 8 10 5 8 11 8 12 7 7 6
15 15 16 16 17 17 16 16 18 17 16 16 16 17 17 16 16 14 15 16 10 9 11 11 9 7 6 3 12 12 12 15 13 10 7 7 10 11 8 13 11 11 12 12 9 4 8
16 16 17 17 17 17 17 17 18 18 17 17 16 16 17 16 15 12 15 12 1 10 9 7 4 7 6 9 12 11 7 13 14 12 11 11 9 10 13 14 14 16 14 11 9 10 9
16 17 18 18 19 17 17 18 18 19 18 17 17 16 16 14 14 11 10 5 8 8 8 5 3 3 11 11 13 13 13 13 11 14 13 15 12 17 17 16 8 10 15 14 6 7 6
17 18 18 19 18 17 17 17 18 19 19 18 17 15 13 12 12 10 7 6 6 6 5 9 8 6 4 6 12 17 16 12 14 15 14 11 17 15 13 10 9 9 13 10 6 6 7
17 18 18 17 16 17 16 16 18 18 19 18 17 14 12 12 11 4 4 4 3 6 7 7 5 7 10 11 15 20 19 10 15 16 16 16 10 10 12 16 14 13 14 12 6 8 5
16 18 18 17 18 18 18 19 18 19 19 17 15 14 12 11 5 2 2 3 9 7 7 7 7 8 8 10 9 21 22 12 9 14 15 11 7 15 18 18 16 14 8 4 9 8 10
16 18 19 18 19 20 20 20 20 19 18 17 16 14 10 7 5 2 6 9 3 6 6 4 8 4 12 17 20 15 21 12 13 11 10 10 16 18 19 17 15 5 9 12 9 10 2
15 18 18 18 19 20 20 21 20 21 18 17 18 13 7 5 4 3 7 5 7 10 6 3 3 12 15 10 8 16 17 12 4 10 15 2 12 14 13 12 13 10 10 8 7 11 11
16 17 19 18 20 20 20 21 21 23 19 17 17 14 7 3 5 7 7 8 7 4 1 5 3 12 16 11 9 20 19 16 11 12 13 7 12 11 13 16 15 14 15 9 10 10 9
16 16 17 19 20 21 21 22 21 22 20 19 15 7 7 4 7 6 6 7 3 4 7 3 1 8 10 11 7 10 12 11 2 11 14 13 14 15 7 15 13 18 17 8 11 13 13
15 16 17 18 19 20 22 22 22 21 20 18 12 5 4 7 4 5 8 6 8 7 7 7 8 10 11 7 7 8 6 6 5 8 7 14 9 6 2 2 8 19 19 12 8 5 13
15 17 18 18 19 20 21 22 23 23 21 14 4 3 8 9 4 8 1 7 6 8 6 4 10 5 8 7 10 7 3 5 3 7 7 1 7 3 3 5 2 7 12 11 9 13 14
15 17 17 18 19 20 21 23 25 24 21 10 5 4 8 7 7 2 5 6 5 9 6 7 4 8 3 5 5 3 4 7 6 5 5 6 7 10 9 3 4 10 10 11 12 9 12
14 15 16 18 19 20 21 23 25 24 23 6 4 1 9 5 2 3 8 5 3 9 6 4 5 6 8 2 7 3 6 6 8 5 2 6 6 10 8 5 3 3 5 9 11 13 8
14 14 16 17 19 20 21 22 23 21 15 6 3 5 8 7 3 7 6 8 10 10 11 4 5 6 3 3 4 6 5 4 7 3 4 4 2 9 11 9 5 3 2 4 9 9 16
12 15 16 16 18 20 21 21 22 21 12 6 2 1 5 6 4 5 7 7 5 7 10 8 5 1 3 5 3 8 7 4 3 7 5 6 4 6 2 8 7 8 3 1 9 12 8
12 14 16 17 18 19 20 22 23 22 13 6 4 5 4 4 7 8 7 3 6 3 5 4 5 5 3 3 6 6 4 6 4 4 1 6 5 5 6 6 4 3 3 2 1 5 7
11 13 14 15 16 18 20 22 25 25 18 2 2 0 4 6 2 6 4 6 7 7 4 8 8 8 5 7 6 7 4 0 4 2 2 4 4 5 4 1 1 5 3 2 2 3 6
10 12 13 14 16 16 17 19 22 26 17 4 2 2 5 1 3 1 8 5 5 4 8 7 5 5 7 6 5 5 4 4 4 4 2 2 5 7 9 3 3 9 10 5 6 2 1
7 10 12 13 14 15 15 16 18 20 17 4 4 3 1 5 5 7 6 6 8 7 7 6 3 2 4 5 6 5 6 6 4 2 4 5 5 3 3 7 9 9 4 2 3 6 6
6 8 9 11 11 13 13 14 15 16 18 4 2 4 2 3 6 7 6 7 7 6 6 7 8 6 6 4 4 6 6 6 6 3 2 4 4 3 4 10 5 8 7 7 12 9 3
7 7 8 9 10 11 12 13 13 14 15 4 5 4 4 2 4 5 6 3 3 4 7 6 5 4 4 4 1 4 2 4 5 6 0 4 2 4 5 5 5 12 7 3 3 7 7
7 8 8 7 8 9 10 11 12 12 13 6 4 5 4 1 6 5 1 2 2 1 2 4 5 6 6 1 2 1 2 2 3 3 5 6 5 7 7 5 0 7 7 4 8 8 8
5 6 7 6 5 6 8 9 10 12 11 6 4 4 6 3 7 5 4 4 4 2 1 7 6 5 4 4 2 3 2 3 2 3 3 5 4 4 5 3 6 11 6 5 8 7 5
5 5 5 5 4 4 5 7 9 10 10 8 1 1 4 5 6 1 3 1 2 3 2 4 5 2 3 2 2 3 3 4 5 2 5 4 3 2 5 1 3 12 3 6 3 5 4
Wind_Direction
21 19 6 9 360 355 350 347 345 342 339 339 337 333 332 328 325 325 323 320 317 313 309 305 302 289 251 224 284 72 151 154 172 187 185 180 186 197 203 202 186 212 224 222 186 202 203
23 15 5 359 358 351 348 344 342 341 338 334 331 331 330 327 324 323 322 317 310 304 296 286 272 254 251 241 15 134 147 156 172 189 186 192 198 196 221 218 222 163 235 257 265 117 141
13 6 2 356 351 348 346 343 341 337 335 332 328 327 327 325 322 323 319 315 306 294 280 259 231 234 251 22 34 145 155 162 166 187 185 201 218 202 156 180 213 221 236 198 188 147 145
6 360 356 352 348 345 343 341 337 336 333 330 327 324 324 324 321 320 320 317 307 285 244 213 204 215 285 62 166 163 156 146 155 181 201 156 225 211 231 92 197 220 233 198 133 180 134
4 358 353 350 348 344 339 336 337 334 330 328 327 321 322 322 321 321 321 317 325 94 140 165 194 239 135 163 166 165 176 165 160 148 165 191 210 215 172 206 189 200 204 211 137 217 147
358 353 352 350 345 343 339 335 334 334 329 328 322 319 317 321 323 322 316 294 225 149 151 187 265 225 173 182 150 156 189 165 169 153 151 186 205 209 215 204 198 187 230 185 161 166 194
354 352 349 346 346 341 337 336 329 327 323 319 321 317 318 318 323 323 289 194 196 173 211 281 108 345 137 107 143 169 159 165 177 187 186 193 203 209 196 210 304 184 209 181 123 164 206
353 349 346 347 341 338 336 334 324 323 319 320 315 315 316 323 324 317 240 264 31 7 275 213 248 254 216 168 151 167 175 170 180 188 188 176 219 199 198 193 178 195 196 177 141 132 254
352 347 346 340 338 335 334 328 325 322 323 320 320 322 323 317 313 227 273 16 316 308 255 136 185 227 184 197 172 167 192 184 197 194 196 205 192 169 197 194 195 196 207 166 200 166 202
346 348 344 340 337 332 332 328 324 325 325 324 326 325 322 311 264 135 175 321 292 225 250 114 172 180 179 204 174 167 194 192 194 204 205 232 143 181 196 198 208 193 214 169 191 216 206
344 347 345 342 338 336 333 327 325 332 333 330 330 324 318 274 341 235 3 316 238 225 209 95 129 102 159 203 134 172 190 204 202 196 199 197 195 193 194 199 207 161 177 203 206 217 259
346 348 346 344 340 337 330 326 328 338 337 330 329 321 303 204 227 360 296 286 226 231 90 102 138 169 173 173 177 148 185 233 302 192 215 233 206 196 194 183 203 113 170 171 200 220 214
346 346 349 345 337 333 330 329 331 340 337 332 328 312 235 286 350 323 290 234 218 348 164 52 73 177 178 157 150 161 180 195 206 191 192 172 190 178 209 185 193 195 186 172 194 198 227
344 345 350 346 337 334 333 331 333 340 336 333 323 300 194 297 307 291 242 230 57 53 21 20 150 191 130 138 117 141 162 165 104 284 175 190 166 183 192 216 187 208 209 215 200 201 175
345 346 348 344 337 334 333 335 336 338 339 334 322 203 354 9 339 263 249 47 24 8 360 339 185 167 139 122 146 127 91 74 35 349 285 195 120 121 11 245 273 185 227 253 281 292 204
347 347 347 345 338 335 337 340 339 340 338 334 265 237 33 351 301 249 58 83 76 20 329 288 131 295 177 125 160 148 132 40 34 15 318 253 134 222 100 209 171 290 216 209 239 183 220
348 346 343 342 342 338 341 344 343 342 336 330 240 243 29 353 255 352 60 67 49 49 5 17 59 139 14 103 67 80 53 81 13 345 328 300 262 142 197 252 196 190 209 239 239 261 220
347 342 342 344 341 340 344 349 345 343 332 271 309 252 18 296 67 36 54 16 324 19 45 82 62 51 89 70 91 86 106 35 351 304 30 6 303 166 110 109 324 317 328 245 224 195 258
345 342 343 345 342 343 348 352 347 345 344 313 30 25 29 281 95 96 105 88 43 32 31 44 51 47 35 104 113 117 122 54 4 23 16 359 325 153 168 170 179 185 139 262 275 288 215
345 343 345 348 345 345 347 353 351 347 327 284 295 134 78 57 24 80 115 63 107 37 51 53 39 80 159 92 85 147 133 77 36 34 346 258 124 357 315 62 106 154 127 4 260 234 211
346 344 345 353 348 346 348 354 354 349 331 282 343 67 348 42 62 70 79 72 85 94 68 14 54 42 0 138 117 122 132 149 95 33 285 316 146 127 70 65 65 100 107 43 3 335 274
345 343 350 352 351 350 351 357 357 351 338 36 7 61 92 80 78 109 137 70 78 89 359 61 87 59 58 85 2 136 151 49 37 356 354 329 155 180 146 91 323 254 167 199 172 141 103
343 346 348 353 357 355 355 359 2 357 339 53 88 120 300 135 96 15 44 56 78 103 69 64 85 72 73 59 54 70 58 80 56 335 115 276 173 213 216 182 241 236 215 205 127 106 274
340 343 347 354 358 358 357 2 6 6 356 359 26 289 332 81 58 60 90 73 74 57 101 86 77 40 64 141 143 133 113 102 99 98 317 175 173 219 133 194 221 73 99 90 147 99 103
327 343 348 351 358 356 1 5 8 8 359 29 25 303 20 98 97 128 128 110 120 124 82 84 60 32 171 224 159 167 154 172 103 61 135 323 190 186 209 213 74 173 187 186 187 139 101
316 332 345 350 359 358 358 6 10 5 4 311 43 314 306 127 125 122 136 170 134 116 147 110 107 70 203 259 161 262 116 10 153 149 29 165 265 252 188 241 233 69 119 144 191 181 142
302 324 341 353 360 355 356 2 10 8 2 320 57 355 282 338 133 177 148 115 109 119 77 139 147 162 222 144 258 285 133 40 221 205 183 182 193 209 217 238 212 116 137 168 218 83 134
283 310 326 348 2 346 350 355 10 10 2 323 75 3 317 306 134 204 163 146 154 240 245 112 191 183 184 198 196 134 217 181 204 261 253 211 210 203 242 244 239 143 150 246 84 120 131
259 293 314 328 350 348 348 352 8 9 356 332 224 91 310 267 43 277 254 305 328 41 93 170 28 122 54 137 182 154 184 173 202 210 202 239 223 292 244 83 87 166 57 108 127 141 162